Wind_Speed
75 78 79 78 76 72 68 64 60 58 57 54 53 53 56 58 61 63 62 56 50 45 41 36 33 30 29 26 26 27 27 27 29 31 31 36 47 44 48 59 76 91 96
77 79 78 77 73 69 64 60 58 57 55 52 53 56 59 61 59 53 48 48 45 41 35 31 28 25 22 18 21 25 23 25 25 26 27 32 42 48 47 52 69 87 94
77 78 77 74 68 64 61 58 56 54 52 52 55 58 59 53 44 43 44 41 41 40 35 31 24 20 16 16 13 19 20 22 24 24 24 33 38 44 45 45 56 71 88
75 75 75 69 63 61 58 56 53 51 51 53 56 57 52 44 41 44 43 41 38 38 33 28 20 15 14 12 8 13 16 18 19 22 27 34 34 39 45 49 40 55 57
73 74 69 63 61 59 56 53 50 50 52 54 56 53 43 41 43 46 42 41 37 34 28 22 18 13 10 8 4 6 8 13 17 19 25 27 33 37 51 58 44 45 69
72 70 62 60 59 56 54 49 48 50 52 55 54 45 41 44 43 48 44 41 37 31 24 21 18 13 9 5 3 3 11 9 16 15 22 27 32 40 59 62 46 47 46
70 61 58 58 55 54 49 47 48 50 51 54 50 41 40 44 45 47 44 40 37 29 23 21 18 15 11 6 6 6 10 13 10 12 13 25 34 49 54 61 53 52 51
62 56 55 54 53 51 45 46 47 48 50 53 47 38 39 44 47 45 43 40 37 30 24 20 17 15 15 9 8 8 10 12 12 13 18 26 39 45 50 50 62 57 52
55 53 53 52 51 46 44 45 46 47 50 51 45 36 36 42 46 43 41 40 36 32 24 20 17 16 16 12 9 8 6 13 13 13 21 35 33 40 42 46 49 47 62
51 51 51 50 48 42 42 44 44 46 49 51 45 34 34 40 43 39 40 40 37 31 26 22 19 17 18 13 10 10 10 11 15 23 20 32 40 35 34 37 40 42 44
50 50 49 47 43 40 41 43 44 46 49 51 45 31 32 38 39 34 36 37 33 29 27 23 20 18 18 16 13 10 10 10 16 17 24 30 33 40 46 33 31 33 42
50 49 46 44 38 39 40 42 44 46 49 50 45 29 31 36 35 32 33 34 32 28 26 24 20 18 17 20 17 11 10 12 12 16 24 29 31 36 34 39 38 44 46
49 46 43 39 35 37 39 41 43 45 48 48 42 27 29 33 33 30 31 32 30 28 25 23 22 19 17 19 20 15 13 14 15 14 22 33 34 35 40 33 36 34 39
48 42 40 33 33 35 37 39 41 43 45 46 40 25 27 31 31 28 31 32 32 30 28 26 23 21 18 16 18 19 17 18 18 18 20 21 26 33 28 31 31 32 37
43 37 35 29 30 32 34 37 39 40 40 44 38 24 23 26 27 26 30 32 33 33 31 28 25 23 20 18 17 18 19 18 22 25 23 22 22 27 29 31 33 34 38
37 32 29 25 27 29 32 35 37 38 38 42 40 29 21 24 27 27 29 32 34 35 31 26 24 22 21 19 18 17 18 19 19 19 24 25 26 27 26 25 27 29 34
28 24 22 21 24 27 31 34 34 36 37 39 42 36 21 21 24 25 28 31 33 36 32 27 23 23 23 22 20 19 17 16 16 17 17 21 23 23 23 27 29 31 33
17 14 14 17 22 26 30 32 33 35 36 36 38 38 33 19 20 24 27 31 31 33 32 29 27 23 22 22 21 19 18 17 16 14 16 15 18 21 21 22 25 28 30
12 9 12 16 20 24 27 31 32 33 34 35 36 38 36 29 16 20 25 27 29 29 31 31 29 28 24 23 23 23 22 21 18 16 14 12 14 15 17 19 20 24 27
7 9 12 15 20 23 26 29 32 33 33 34 35 35 37 38 34 21 18 21 24 27 28 30 31 29 29 27 25 25 25 25 24 21 18 14 11 10 12 14 15 17 21
7 9 12 16 19 22 25 28 30 31 32 33 33 33 34 35 35 33 29 17 18 21 24 27 29 30 30 28 26 24 24 23 22 20 20 18 14 11 8 7 10 13 14
8 10 13 16 19 22 24 27 29 30 31 31 32 32 32 33 34 34 32 31 22 16 18 21 25 26 28 29 29 28 26 24 22 21 20 19 17 15 12 9 6 4 6
9 11 14 17 19 21 23 25 27 29 31 31 31 32 32 32 32 32 33 34 31 29 21 16 18 20 22 24 26 26 27 28 27 25 23 20 19 17 16 15 13 10 7
9 11 14 16 19 21 22 24 26 28 30 31 31 31 32 31 31 31 31 31 32 33 30 27 23 17 15 17 18 19 20 21 22 23 23 23 22 20 18 16 15 13 11
8 10 13 15 17 19 21 22 24 26 27 29 30 31 31 31 31 31 31 31 31 31 31 33 31 26 24 21 17 14 12 13 14 15 15 15 16 16 16 16 15 14 12
5 7 10 13 15 17 19 20 22 23 25 26 28 29 30 30 30 30 30 31 31 31 30 30 30 28 30 32 29 25 22 18 16 13 10 9 9 9 9 8 7 6 5
Wind_Direction
330 331 332 333 334 335 334 335 334 333 333 333 334 333 332 330 327 324 323 324 325 321 316 311 301 289 278 264 253 248 244 234 233 232 229 223 212 214 208 208 208 205 207
330 332 333 334 336 335 336 335 335 334 335 336 336 336 334 332 332 336 339 339 338 335 330 325 316 300 280 263 247 241 243 230 230 225 225 215 205 211 209 207 206 204 207
331 333 334 337 336 337 336 336 335 337 338 339 339 337 336 339 344 343 341 338 338 335 332 328 325 315 296 272 256 239 237 227 219 218 217 212 203 203 202 197 202 203 207
332 333 336 337 337 336 336 337 339 340 341 341 340 339 342 346 349 348 345 341 337 338 336 333 331 322 309 300 246 240 229 221 218 221 209 206 199 196 191 172 167 190 195
333 334 338 338 337 337 338 340 342 342 343 343 343 343 347 349 354 354 350 350 348 344 348 345 341 343 331 311 274 222 216 203 197 197 194 198 197 189 182 171 168 179 195
333 337 338 337 338 339 340 342 344 345 345 345 345 347 349 351 355 357 357 357 355 355 355 353 359 3 3 334 341 172 169 193 200 193 199 199 193 184 187 176 154 161 191
336 339 337 338 339 340 343 344 346 347 346 347 347 348 350 354 358 358 2 3 1 1 4 7 10 19 38 10 36 138 168 183 184 172 189 180 175 177 192 192 168 151 157
339 338 338 340 341 343 344 346 348 348 348 349 350 349 351 357 359 360 5 7 7 8 12 17 17 25 46 39 47 121 160 163 171 179 175 169 169 179 193 200 187 174 167
339 337 339 340 342 344 346 348 348 349 350 352 352 351 354 1 1 1 6 8 11 12 17 27 29 33 51 49 55 95 145 211 223 194 192 160 158 172 187 190 180 188 171
337 339 340 341 342 344 347 348 350 351 353 355 354 355 359 4 3 3 9 10 11 11 20 32 36 34 57 64 62 102 112 133 159 174 181 173 161 151 173 184 187 195 198
338 340 339 341 344 346 348 350 352 353 356 357 357 360 5 7 6 9 12 12 14 15 23 32 36 36 54 78 73 92 97 114 131 167 178 176 177 172 156 167 173 185 199
338 338 339 342 344 348 350 353 355 357 358 360 359 6 10 8 10 13 16 15 17 22 26 35 42 44 45 77 86 102 112 124 125 136 154 175 164 172 180 169 166 189 201
337 337 339 343 345 350 352 355 357 359 0 2 3 11 11 9 13 17 17 16 20 26 35 41 49 53 51 59 77 100 116 126 132 141 152 160 169 171 166 161 165 182 195
337 337 339 343 346 351 354 357 360 1 3 5 7 13 13 11 13 18 17 17 22 30 38 44 51 57 62 61 68 88 109 128 143 149 156 167 160 168 168 165 172 171 182
333 335 338 341 348 354 357 360 2 3 5 9 11 13 15 14 17 19 21 21 24 30 38 41 46 55 62 67 68 71 92 117 138 147 158 174 181 177 178 184 174 184 183
327 330 336 340 350 357 359 2 3 5 8 13 16 17 16 18 20 23 25 27 29 33 39 43 47 56 64 70 76 77 76 87 111 136 148 156 163 171 177 178 179 183 182
318 323 334 342 354 360 3 4 6 8 12 16 19 20 20 22 24 29 31 31 33 35 41 46 47 53 60 69 75 81 85 85 91 109 131 150 160 169 176 183 187 189 189
308 326 338 351 1 4 5 7 9 12 16 19 22 24 24 24 25 32 36 36 36 37 41 50 53 56 63 68 72 78 87 97 96 96 106 126 152 166 175 186 190 192 194
328 346 354 2 8 9 7 11 13 16 18 21 24 28 30 33 31 35 38 37 39 42 43 50 56 59 62 66 72 76 78 81 90 100 106 118 125 138 159 174 186 193 196
2 7 6 14 15 13 11 14 16 18 20 22 25 27 30 34 35 35 36 39 41 43 46 50 56 61 65 68 72 76 80 82 81 82 89 99 114 134 144 155 164 181 196
31 20 20 21 21 18 17 19 19 21 23 24 27 29 32 35 38 39 40 37 41 46 50 52 56 61 64 66 67 69 69 70 71 75 80 83 87 98 121 154 170 177 185
42 30 27 26 25 23 21 23 23 23 26 27 28 31 34 36 38 41 44 46 46 44 49 54 58 59 62 66 66 68 68 71 73 72 71 74 77 79 84 97 112 146 187
47 36 29 28 28 27 25 26 26 27 28 29 29 32 34 37 39 41 44 46 48 52 54 54 55 58 60 63 64 63 65 67 69 74 74 74 73 72 73 78 81 84 88
47 38 32 31 31 29 28 27 28 29 30 31 31 32 35 37 39 42 44 47 49 51 53 55 57 56 56 60 62 63 63 63 64 64 66 68 71 74 77 77 75 73 76
44 36 33 31 30 28 28 27 29 31 32 33 33 34 35 37 39 42 43 46 49 51 53 55 57 57 59 60 56 55 55 58 60 62 63 63 63 63 61 58 57 56 56
42 31 28 29 28 28 28 28 30 33 32 34 35 36 36 38 39 41 43 45 47 49 52 54 56 58 60 63 63 63 62 62 60 57 54 50 49 47 45 46 48 52 42
Height
5663 5649 5634 5620 5606 5593 5581 5568 5557 5547 5536 5526 5516 5506 5495 5484 5472 5460 5447 5436 5425 5415 5406 5400 5395 5393 5392 5395 5397 5400 5404 5408 5413 5419 5426 5432 5442 5451 5461 5473 5487 5507 5527
5654 5640 5625 5612 5599 5586 5573 5561 5550 5540 5530 5519 5509 5497 5486 5473 5460 5448 5437 5427 5417 5408 5399 5392 5385 5382 5382 5384 5386 5389 5393 5397 5402 5409 5416 5421 5430 5441 5451 5461 5476 5496 5514
5645 5630 5617 5605 5591 5579 5567 5555 5544 5533 5523 5513 5502 5491 5478 5466 5455 5443 5432 5422 5412 5403 5394 5387 5380 5376 5375 5376 5378 5381 5385 5389 5395 5402 5408 5415 5423 5432 5442 5454 5466 5486 5503
5636 5622 5610 5596 5584 5573 5562 5551 5539 5528 5518 5507 5496 5484 5472 5462 5452 5441 5429 5418 5407 5398 5389 5383 5377 5374 5371 5371 5373 5376 5378 5383 5388 5394 5399 5406 5415 5425 5436 5449 5462 5480 5496
5628 5615 5602 5589 5578 5567 5555 5544 5534 5524 5514 5503 5491 5479 5469 5459 5450 5438 5426 5415 5404 5394 5386 5380 5375 5373 5370 5369 5371 5372 5375 5378 5383 5388 5394 5401 5410 5420 5430 5443 5457 5470 5491
5620 5607 5595 5583 5572 5562 5551 5540 5530 5521 5510 5499 5487 5476 5467 5457 5447 5435 5424 5413 5402 5393 5385 5380 5376 5373 5370 5369 5370 5371 5374 5377 5382 5386 5391 5398 5405 5415 5424 5435 5449 5465 5485
5613 5601 5590 5579 5568 5557 5547 5537 5527 5517 5507 5496 5484 5474 5466 5455 5444 5434 5423 5412 5402 5393 5386 5381 5378 5374 5372 5370 5371 5372 5375 5379 5382 5385 5390 5396 5403 5412 5417 5428 5441 5457 5480
5606 5596 5585 5574 5564 5554 5544 5535 5525 5516 5506 5494 5482 5473 5465 5454 5443 5434 5424 5414 5404 5395 5389 5384 5380 5377 5375 5373 5373 5375 5377 5380 5382 5386 5391 5398 5405 5412 5416 5426 5436 5451 5470
5601 5591 5581 5570 5560 5551 5542 5533 5524 5514 5504 5492 5481 5472 5465 5455 5444 5435 5426 5417 5407 5399 5392 5387 5383 5380 5378 5376 5376 5377 5380 5381 5383 5386 5392 5401 5407 5412 5419 5429 5440 5454 5464
5597 5587 5577 5567 5558 5550 5541 5533 5523 5514 5503 5491 5480 5471 5464 5456 5446 5437 5428 5419 5410 5403 5396 5391 5387 5384 5382 5380 5380 5381 5383 5385 5387 5391 5396 5402 5410 5417 5422 5433 5443 5452 5464
5593 5583 5574 5565 5556 5548 5539 5531 5521 5511 5501 5490 5479 5471 5465 5457 5449 5441 5432 5424 5416 5408 5401 5396 5392 5389 5387 5385 5384 5384 5386 5388 5392 5394 5399 5404 5411 5421 5429 5436 5445 5453 5464
5590 5580 5571 5563 5555 5547 5538 5530 5520 5510 5499 5488 5478 5471 5466 5459 5452 5445 5438 5430 5422 5414 5407 5401 5398 5394 5391 5391 5390 5390 5391 5393 5395 5400 5404 5409 5416 5424 5431 5441 5452 5459 5469
5586 5577 5569 5561 5555 5546 5538 5529 5520 5510 5500 5489 5480 5473 5468 5462 5456 5449 5442 5436 5429 5421 5413 5408 5403 5400 5398 5396 5396 5396 5396 5398 5401 5405 5410 5416 5422 5429 5436 5444 5453 5464 5475
5582 5574 5567 5560 5554 5546 5539 5530 5521 5512 5502 5492 5482 5475 5471 5465 5459 5453 5447 5440 5433 5426 5419 5413 5410 5407 5405 5403 5402 5402 5403 5404 5407 5410 5415 5420 5426 5433 5439 5447 5456 5465 5475
5579 5572 5566 5560 5554 5547 5540 5532 5524 5516 5507 5496 5486 5479 5474 5470 5464 5458 5451 5445 5438 5430 5422 5418 5415 5413 5411 5410 5409 5408 5408 5409 5412 5415 5420 5425 5431 5436 5443 5450 5458 5467 5474
5575 5569 5564 5560 5554 5548 5541 5534 5526 5517 5509 5499 5490 5482 5478 5473 5467 5461 5455 5449 5442 5435 5429 5425 5422 5419 5418 5416 5415 5415 5415 5415 5416 5419 5423 5429 5434 5440 5446 5452 5459 5465 5473
5569 5566 5563 5560 5554 5549 5542 5535 5528 5520 5511 5502 5494 5486 5480 5476 5472 5466 5460 5454 5448 5441 5437 5433 5429 5426 5424 5422 5421 5421 5422 5422 5423 5425 5428 5432 5437 5442 5447 5453 5459 5466 5472
5563 5562 5561 5559 5554 5549 5544 5537 5530 5521 5514 5507 5499 5491 5483 5478 5475 5470 5465 5459 5455 5450 5445 5440 5437 5433 5431 5429 5428 5428 5428 5429 5430 5432 5434 5436 5440 5444 5449 5454 5459 5465 5471
5564 5562 5561 5559 5555 5550 5545 5539 5532 5525 5518 5511 5504 5497 5490 5483 5479 5475 5470 5466 5462 5458 5453 5448 5444 5441 5438 5436 5435 5434 5434 5435 5436 5438 5440 5442 5445 5448 5451 5455 5460 5464 5470
5564 5564 5563 5560 5556 5552 5547 5541 5534 5528 5521 5515 5508 5502 5495 5487 5482 5478 5475 5472 5469 5465 5461 5457 5453 5449 5447 5445 5443 5442 5442 5442 5443 5443 5444 5445 5448 5451 5454 5457 5461 5465 5469
5567 5566 5564 5562 5558 5554 5550 5544 5538 5532 5526 5520 5514 5508 5502 5495 5489 5483 5478 5475 5474 5471 5468 5465 5461 5458 5455 5453 5452 5450 5449 5449 5449 5450 5449 5450 5451 5453 5456 5459 5462 5465 5469
5569 5569 5567 5564 5560 5557 5553 5547 5542 5537 5531 5525 5519 5513 5508 5502 5496 5491 5486 5481 5477 5475 5473 5471 5468 5466 5464 5461 5460 5458 5457 5456 5455 5455 5455 5455 5456 5456 5458 5459 5462 5464 5467
5572 5571 5569 5566 5563 5559 5555 5551 5547 5541 5536 5530 5525 5519 5513 5508 5503 5498 5493 5488 5484 5480 5477 5476 5474 5473 5471 5469 5467 5466 5464 5463 5462 5462 5462 5462 5461 5461 5462 5463 5464 5466 5467
5574 5573 5571 5569 5566 5562 5559 5555 5550 5546 5540 5535 5530 5525 5520 5515 5510 5505 5501 5496 5492 5488 5484 5481 5478 5477 5476 5475 5474 5473 5472 5471 5470 5469 5469 5468 5468 5468 5468 5468 5468 5469 5470
5576 5575 5573 5571 5568 5565 5562 5558 5554 5550 5545 5541 5536 5531 5526 5521 5516 5512 5507 5503 5500 5496 5492 5489 5486 5483 5481 5479 5478 5477 5476 5476 5475 5475 5475 5474 5474 5473 5473 5473 5472 5473 5473
5576 5576 5574 5572 5570 5568 5565 5562 5558 5554 5550 5546 5541 5537 5533 5528 5523 5519 5514 5510 5506 5503 5500 5496 5494 5491 5489 5486 5484 5482 5480 5479 5478 5477 5477 5477 5476 5476 5476 5476 5476 5476 5476